Location: Sceptre
(50.8619°N, 109.2670°W)
Time: 02:31:28
(UTC+00:00)

RS-44 - Visible Passes

Search period start: 26 June 2022 00:00
Search period end: 06 July 2022 00:00
Orbit: 1175 x 1509 km, 82.5° (Epoch: 25 June)

Date Brightness Start Highest point End Pass type
(mag) Time Alt. Az. Time Alt. Az. Time Alt. Az.
26 Jun ? 04:29:25 10° S 04:37:30 88° W 04:46:14 10° N visible
26 Jun ? 06:25:47 10° WSW 06:32:22 26° NW 06:39:19 10° N visible
27 Jun ? 04:53:24 10° SSW 05:01:26 63° WNW 05:10:05 10° N visible
27 Jun ? 06:51:31 10° W 06:57:02 19° NW 07:02:47 10° N visible
28 Jun ? 05:17:47 10° SW 05:25:33 45° WNW 05:33:52 10° N visible
28 Jun ? 07:18:01 10° WNW 07:21:55 14° NW 07:25:55 10° NNW visible
29 Jun ? 05:42:37 10° WSW 05:49:52 33° WNW 05:57:35 10° N visible
30 Jun ? 04:11:07 10° SSW 04:19:19 81° WNW 04:28:09 10° N visible
30 Jun ? 06:07:55 10° WSW 06:14:24 24° NW 06:21:10 10° N visible
01 Jul ? 04:35:12 10° SSW 04:43:19 58° WNW 04:52:00 10° N visible
01 Jul ? 06:33:49 10° W 06:39:07 17° NW 06:44:35 10° N visible
02 Jul ? 04:59:42 10° SW 05:07:30 42° WNW 05:15:45 10° N visible
02 Jul ? 07:00:34 10° WNW 07:04:03 13° NW 07:07:36 10° NNW visible
03 Jul ? 05:24:39 10° WSW 05:31:52 30° WNW 05:39:27 10° N visible
04 Jul ? 05:50:07 10° W 05:56:26 22° NW 06:03:00 10° N visible
05 Jul ? 04:17:04 10° SSW 04:25:13 54° WNW 04:33:54 10° N visible
05 Jul ? 06:16:12 10° W 06:21:13 16° NW 06:26:22 10° N visible
